Showing default

COSMOS 2426 (GLONASS), 29671

Orbit data source: Space-Track

COSMOS 2426 (GLONASS), 29671 is a Commonwealth of Independent States-origin payload satellite in MEO that was launched on Mon, 25 Dec 2006 UTC via a PROTON-K/DM-2 launch vehicle from the Tyuratam Missile And Space Complex (TTMTR). Payload-class satellites include a variety of spacecraft equipped with specific instruments for various scientific and technological missions. These include communications satellites like Starlink; space stations such as the ISS; scientific satellites like the Hubble; Earth observation satellites from companies like Planet Labs, Umbra, and HawkEye 360; GPS; miniature CubeSats for education and research; and military/defense satellites.

Loading next visibility...
Identifier
29671, 2006-062B
Orbit
MEO
Country
Flag of CISCIS
Related business
Manufacturer
Resehetnev ISS
Mission
Non-operational Defense Navigation
Bus & Motor
URAGAN, Unknown motor
Mass
1,450 kg wet, ~1,200 kg dry
Launch date (UTC)
2006-12-25 (19 years ago)
Launch vehicle
PROTON-K/DM-2
Launch site
Tyuratam Missile And Space Complex (TTMTR)
Object type
Payload
Rocket body
Debris
Shape & HBR
Cyl + 1 Arm + 2 Pan, 3.9 m
Radar Cross Section
8.145 m², Large (>1 m²)

Expand to show TLE details & history
Last TLE update: 4 days ago

TLE from 4 days ago
0 COSMOS 2426 (GLONASS)
1 29671U 06062B   26169.16676338  .00000056  00000-0  00000-0 0  9994
2 29671  64.7002 194.5090 0021742 184.6003 257.1623  2.12963880151576
Epoch: 2026-06-18T04:00Z
TLE epoch observation values (Epoch: 2026-06-18T04:00:08.356Z)
Latitude
63.41177°
Longitude
-61.20958°
Altitude
19,163.693 km
Speed
3.951 km/s
True Right ascension
17h 40m 57s
True Declination
63° 22' 24"
Sunlit
Object was in daylight at epoch
Visualization orbit readout
Latitude
Unknown
Longitude
Unknown
Altitude
Unknown
Speed
Unknown
Apparent Right ascension
Unknown
Apparent Declination
Unknown
Sunlit
N/A
Visualization observer readout
Local Sidereal Time
23:20:14
Azimuth
Unknown
Elevation
Unknown
Doppler factor
Unknown
Orbital elements
Apogee altitude
19,196.023 km
Perigee altitude
19,085.058 km
Semi-major axis
25,518.678 km
Eccentricity
0.00217
Inclination
64.7002°
RAAN
194.509°
Arg. of periapsis
184.6003°
True anomaly
256.91953°
Mean anomaly
257.1623°
Eccentric anomaly
257.0409°
Mean motion
0.53242 °/min
Orbital period
676.16 mins
BSTAR
0
Loading maneuver chart data...
Computing Atmospheric mass density...
Loading historical data...
Loading historical data...
Loading historical data...
Loading historical data...
Loading historical data...
Loading historical data...
Loading historical data...

Documentation

Showing up to 5 results
|